Regional Weather Roundup
Issued by NWS

Home | Current Version | Previous Version | Text Only | Print | Product List | Glossary Off
Versions: 1 2 3 4 5 6 7 8 9 10 11 12 13 14 15 16 17 18 19 20 21 22 23 24 25 26 27 28 29 30 31 32 33 34 35 36 37 38 39 40 41 42 43 44 45 46 47 48 49 50

000
ASUS43 KDTX 211310
RWRMI
MICHIGAN HOURLY REGIONAL WEATHER ROUNDUP
NATIONAL WEATHER SERVICE DETROIT/PONTIAC MI
900 AM EDT TUE APR 21 2015

NOTE: "FAIR" INDICATES FEW OR NO CLOUDS BELOW 12,000 FEET WITH NO
SIGNIFICANT WEATHER AND/OR OBSTRUCTION TO VISIBILITY.

MIZ047>049-052>055-059>063-066>070-074>076-081>083-211400-
SOUTHEAST LOWER MICHIGAN

CITY           SKY/WX    TMP DP  RH WIND       PRES   REMARKS
ADRIAN         SUNNY     45  32  60 W23G37    29.60S
ALMA           LGT RAIN  40  35  82 SW15G21   29.50S WCI  32
ANN ARBOR      PTSUNNY   44  36  73 SW15G23   29.57S
BAD AXE        CLOUDY    39  35  84 SW8       29.50S WCI  33
CARO           CLOUDY    42  34  73 SW14G21   29.50S
DETROIT CITY   PTSUNNY   45  34  65 SW20G28   29.57F
DETROIT        PTSUNNY   47  35  63 S23G30    29.59S
FLINT          CLOUDY    45  34  65 SW18G26   29.53F
GROSSE ILE     MOSUNNY   46  37  71 SW15G21   29.58S
HILLSDALE      SUNNY     44  30  58 W15G32    29.58S
HOWELL         CLOUDY    42  33  69 SW16G25   29.53F

CITY           SKY/WX    TMP DP  RH WIND       PRES   REMARKS
JACKSON        PTSUNNY   43  33  68 SW17G33   29.55F
LAMBERTVILLE   SUNNY     46  32  57 SW13G25   29.61S
LANSING        CLOUDY    42  30  62 SW24      29.54S
LAPEER         CLOUDY    42  34  73 SW12      29.53S
MASON          PTSUNNY   42  32  67 SW16      29.54S
MT. CLEMENS    CLOUDY    45  35  67 SW14      29.54S
PONTIAC        PTSUNNY   43  32  65 SW15G24   29.53F
PORT HOPE        N/A     39  34  82 SW9G17    29.48S WCI  33
PORT HURON     CLOUDY    45  34  65 SW10G18   29.55F
TRI CITIES     CLOUDY    43  34  70 SW20G30   29.49F
TROY           CLOUDY    45  36  70 SW15G22   29.57F
SAGINAW HB     CLOUDY    43  34  70 SW16G24   29.49F
$$
MIZ043>046-050>051-056>058-064>065-071>073-077>080-211400-
SOUTHWEST LOWER MICHIGAN

CITY           SKY/WX    TMP DP  RH WIND       PRES   REMARKS
BATTLE CREEK   CLOUDY    42  32  67 W20G30    29.56S
BENTON HARBOR  CLOUDY    40  31  70 SW21G33   29.60R WCI  30
BIG RAPIDS     LGT RAIN  38  34  86 SW12G17   29.45R WCI  30
COLDWATER      SUNNY     42  32  66 SW18G28   29.59S
FREMONT        LGT RAIN  38  33  82 W13G25    29.48S WCI  30
HOLLAND        CLOUDY    42  32  67 SW23G35   29.55R
GRAND RAPIDS   CLOUDY    41  31  67 W26G33    29.52S
IONIA          CLOUDY    41  32  70 SW21G29   29.51S
KALAMAZOO      PTSUNNY   43  32  65 SW14G22   29.57S
LUDINGTON      LGT SNOW  37  34  87 W7G22     29.46R WCI  32
MARSHALL       CLOUDY    41  32  69 MISG      29.56S
MOUNT PLEASANT LGT RAIN  38  35  87 SW13G18   29.48R WCI  30
MUSKEGON       CLOUDY    39  32  76 SW16G29   29.51R WCI  30
SOUTH HAVEN    CLOUDY    42  32  68 SW17G23   29.58R
$$
MIZ016>042-211400-
NORTHERN LOWER MICHIGAN

CITY           SKY/WX    TMP DP  RH WIND       PRES   REMARKS
ALPENA         CLOUDY    40  32  73 SW9       29.41F WCI  34
BEAVER ISLAND  CLOUDY    37  33  85 SW9G18    29.35S WCI  30
BELLAIRE       LGT SNOW  34  32  92 SW6       29.40R WCI  29
CADILLAC       LGT SNOW  35  33  93 SW13      29.40S WCI  27
CHARLEVOIX     CLOUDY    37  35  94 SW12      29.40S WCI  29
FRANKFORT      DRIZZLE   39  32  74 SW7G20    29.41S WCI  34
GAYLORD        CLOUDY    34  34 100 SW13      29.36F WCI  25
GRAYLING       CLOUDY    37  32  84 S9        29.40S WCI  30
HARBOR SPRINGS MIX PCPN  36  33  92 SW10G16   29.36S WCI  28
HOUGHTON LAKE  CLOUDY    37  33  85 SW13G29   29.41F WCI  29
MANISTEE       CLOUDY    37  30  75 W14       29.44S WCI  29
OSCODA         CLOUDY    40  35  81 SW13      29.45S WCI  33
PELLSTON       LGT RAIN  38  33  82 SW7       29.36F WCI  33
ROGERS CITY    PTSUNNY   39  34  82 SW10G17   29.40S WCI  33
TRAVERSE CITY  DRIZZLE   37  32  82 W10G22    29.39S WCI  30
$$
MIZ007>008-015-211400-
EASTERN UPPER MICHIGAN

CITY           SKY/WX    TMP DP  RH WIND       PRES   REMARKS
KINROSS        PTSUNNY   37  36  93 SW10      29.33F WCI  30
MACKINAC ISLAN CLOUDY    37  34  89 SW9       29.35S WCI  30
NEWBERRY       CLOUDY    35  33  93 SW15      29.29F WCI  25
S. S. MARIE    CLOUDY    36  32  85 S9        29.32F WCI  29
MUNISING         N/A     37  32  82 S7        29.28F WCI  32
$$
MIZ004>006-011>014-085-211400-
CENTRAL UPPER MICHIGAN

CITY           SKY/WX    TMP DP  RH WIND       PRES   REMARKS
MANISTIQUE     MIX PCPN  36  34  93 SW9G16    29.32S WCI  29
ESCANABA       CLOUDY    36  32  87 SW9       29.33S WCI  29
MENOMINEE      CLOUDY    37  28  70 W10G17    29.37R WCI  30
SAWYER-GWINN   LGT SNOW  34  32  93 SW9       29.27S WCI  26
$$
MIZ001>003-009>011-084-211400-
WESTERN UPPER MICHIGAN

CITY           SKY/WX    TMP DP  RH WIND       PRES   REMARKS
IRON MOUNTAIN  CLOUDY    36  31  82 W13       29.30S WCI  27
HOUGHTON       LGT SNOW  33  31  92 W21G29    29.24S FOG     WCI  21
COPPER HARBOR    N/A     35  32  88 N12       29.24R WCI  27
IRONWOOD       CLOUDY    30  28  93 W20       29.31R WCI  18
$$

ABBREVIATIONS USED IN REMARKS
   TC - TEMPERATURE IN CELSIUS
  WCI - WIND CHILL INDEX
   HX - HEAT INDEX
  VSB - VISIBILITY




USA.gov is the U.S. government's official web portal to all federal, state and local government web resources and services.